| time (UTC) | temp F | wind direction | speed knots | gust knots | rain 1hr in | rain 24hr in | rain mn in | humidity % | barometer mb |
| 20260505124534 | 54 | 198 | 20.0 | 26.9 | 0.00 | 0.00 | 0.00 | 88 | 1013.7 |
| 20260505123034 | 54 | 225 | 13.0 | 22.6 | 0.00 | 0.00 | 0.00 | 88 | 1013.7 |
| 20260505121529 | 54 | 239 | 14.8 | 22.6 | 0.00 | 0.00 | 0.00 | 88 | 1013.9 |
| 20260505120027 | 54 | 212 | 12.2 | 20.9 | 0.00 | 0.00 | 0.00 | 89 | 1013.8 |
| 20260505114524 | 53 | 206 | 14.8 | 20.9 | 0.00 | 0.00 | 0.00 | 89 | 1014.0 |
| 20260505113023 | 53 | 248 | 15.6 | 24.3 | 0.00 | 0.00 | 0.00 | 89 | 1013.9 |
| 20260505111521 | 53 | 189 | 13.0 | 21.7 | 0.00 | 0.00 | 0.00 | 90 | 1013.9 |
| 20260505101527 | 51 | 218 | 10.4 | 14.8 | 0.00 | 0.00 | 0.00 | 92 | 1013.8 |
| 20260505100030 | 50 | 187 | 10.4 | 15.6 | 0.00 | 0.00 | 0.00 | 93 | 1013.7 |
| 20260505094509 | 50 | 222 | 13.0 | 20.0 | 0.00 | 0.00 | 0.00 | 93 | 1013.4 |
| 20260505093008 | 49 | 237 | 10.4 | 18.2 | 0.00 | 0.00 | 0.00 | 93 | 1013.4 |
| 20260505091506 | 49 | 226 | 11.3 | 17.4 | 0.00 | 0.00 | 0.00 | 93 | 1013.5 |
| 20260505090005 | 50 | 206 | 9.6 | 16.5 | 0.00 | 0.00 | 0.00 | 93 | 1013.4 |
| 20260505084506 | 50 | 202 | 11.3 | 17.4 | 0.00 | 0.00 | 0.00 | 93 | 1013.4 |
| 20260505083003 | 50 | 225 | 9.6 | 13.9 | 0.00 | 0.00 | 0.00 | 92 | 1013.5 |
| 20260505081628 | 50 | 202 | 8.7 | 14.8 | 0.00 | 0.00 | 0.00 | 92 | 1013.6 |
| 20260505074558 | 50 | 230 | 8.7 | 19.1 | 0.00 | 0.00 | 0.00 | 91 | 1013.5 |
| 20260505073103 | 51 | 235 | 12.2 | 20.0 | 0.00 | 0.00 | 0.00 | 91 | 1013.5 |
| 20260505071557 | 51 | 235 | 11.3 | 19.1 | 0.00 | 0.00 | 0.00 | 91 | 1013.5 |
| 20260505070058 | 51 | 227 | 12.2 | 20.9 | 0.00 | 0.00 | 0.00 | 91 | 1013.4 |
| 20260505064552 | 51 | 289 | 11.3 | 20.0 | 0.00 | 0.00 | 0.00 | 90 | 1013.4 |
| 20260505063051 | 51 | 215 | 10.4 | 19.1 | 0.00 | 0.00 | 0.00 | 90 | 1013.5 |
| 20260505061549 | 51 | 209 | 11.3 | 18.2 | 0.00 | 0.00 | 0.00 | 90 | 1013.5 |
| 20260505060047 | 51 | 229 | 12.2 | 20.9 | 0.00 | 0.00 | 0.00 | 90 | 1013.5 |
| 20260505054548 | 51 | 243 | 10.4 | 20.9 | 0.00 | 0.00 | 0.00 | 89 | 1013.4 |
| 20260505053044 | 50 | 243 | 11.3 | 19.1 | 0.00 | 0.00 | 0.00 | 90 | 1013.4 |
| 20260505051542 | 50 | 213 | 10.4 | 18.2 | 0.00 | 0.00 | 0.00 | 91 | 1013.4 |
| 20260505041529 | 50 | 226 | 11.3 | 18.2 | 0.00 | 0.00 | 0.00 | 89 | 1014.0 |
| 20260505040028 | 50 | 235 | 12.2 | 24.3 | 0.00 | 0.00 | 0.00 | 88 | 1014.0 |
| 20260505034526 | 51 | 258 | 12.2 | 23.5 | 0.00 | 0.00 | 0.00 | 87 | 1014.0 |
| 20260505033024 | 51 | 250 | 13.9 | 21.7 | 0.00 | 0.00 | 0.00 | 87 | 1014.1 |
| 20260505031531 | 51 | 225 | 12.2 | 21.7 | 0.00 | 0.00 | 0.00 | 87 | 1014.0 |
| 20260505030023 | 51 | 244 | 11.3 | 22.6 | 0.00 | 0.00 | 0.00 | 86 | 1014.0 |
| 20260505024522 | 51 | 228 | 13.0 | 22.6 | 0.00 | 0.00 | 0.00 | 85 | 1014.0 |
| 20260505023022 | 51 | 181 | 14.8 | 25.2 | 0.00 | 0.00 | 0.00 | 84 | 1014.0 |
| 20260505021519 | 51 | 256 | 12.2 | 22.6 | 0.00 | 0.00 | 0.00 | 83 | 1013.9 |
| 20260505020019 | 51 | 208 | 14.8 | 24.3 | 0.00 | 0.00 | 0.00 | 83 | 1013.8 |
| 20260505014517 | 51 | 230 | 14.8 | 23.5 | 0.00 | 0.00 | 0.00 | 82 | 1013.7 |
| 20260505013016 | 51 | 218 | 11.3 | 24.3 | 0.00 | 0.00 | 0.00 | 82 | 1013.5 |
| 20260505011525 | 50 | 220 | 12.2 | 22.6 | 0.00 | 0.00 | 0.00 | 82 | 1013.4 |
| 20260505010026 | 50 | 213 | 13.0 | 20.9 | 0.00 | 0.00 | 0.00 | 81 | 1013.1 |
| 20260505004515 | 50 | 243 | 14.8 | 21.7 | 0.00 | 0.00 | 0.00 | 81 | 1012.8 |
| 20260505003014 | 50 | 242 | 15.6 | 26.1 | 0.00 | 0.00 | 0.00 | 81 | 1012.6 |
| 20260505001514 | 51 | 210 | 15.6 | 26.1 | 0.00 | 0.00 | 0.00 | 82 | 1012.4 |
| 20260505000021 | 50 | 226 | 16.5 | 24.3 | 0.00 | 0.00 | 0.00 | 82 | 1012.1 |
| 20260504234512 | 51 | 260 | 14.8 | 26.9 | 0.00 | 0.00 | 0.00 | 81 | 1012.0 |
| 20260504233011 | 51 | 227 | 14.8 | 22.6 | 0.00 | 0.00 | 0.00 | 81 | 1012.0 |
| 20260504231510 | 51 | 225 | 15.6 | 26.9 | 0.00 | 0.00 | 0.00 | 81 | 1011.9 |
| 20260504230012 | 52 | 254 | 16.5 | 23.5 | 0.00 | 0.00 | 0.00 | 81 | 1011.8 |
| 20260504224511 | 52 | 223 | 16.5 | 24.3 | 0.00 | 0.00 | 0.00 | 81 | 1011.9 |
| 20260504223011 | 53 | 229 | 13.0 | 25.2 | 0.00 | 0.00 | 0.00 | 80 | 1011.7 |
| 20260504221520 | 53 | 233 | 17.4 | 28.7 | 0.00 | 0.00 | 0.00 | 78 | 1011.8 |
| 20260504220007 | 54 | 242 | 17.4 | 28.7 | 0.00 | 0.00 | 0.00 | 75 | 1012.0 |
| 20260504214507 | 54 | 220 | 15.6 | 26.1 | 0.00 | 0.00 | 0.00 | 76 | 1012.0 |
| 20260504213005 | 53 | 199 | 19.1 | 29.5 | 0.00 | 0.00 | 0.00 | 76 | 1012.1 |
| 20260504211506 | 53 | 279 | 14.8 | 32.2 | 0.00 | 0.00 | 0.00 | 77 | 1012.2 |
| 20260504210004 | 54 | 210 | 14.8 | 26.9 | 0.00 | 0.00 | 0.00 | 77 | 1012.3 |
| 20260504204502 | 54 | 238 | 15.6 | 26.9 | 0.00 | 0.00 | 0.00 | 76 | 1012.2 |
| 20260504203002 | 54 | 239 | 13.0 | 26.9 | 0.00 | 0.00 | 0.00 | 75 | 1012.3 |
| 20260504201501 | 54 | 202 | 22.6 | 33.0 | 0.00 | 0.00 | 0.00 | 73 | 1012.3 |
| 20260504200104 | 54 | 257 | 18.2 | 32.2 | 0.00 | 0.00 | 0.00 | 74 | 1012.3 |
| 20260504194601 | 55 | 242 | 17.4 | 30.4 | 0.00 | 0.00 | 0.00 | 73 | 1012.3 |
| 20260504193102 | 55 | 235 | 19.1 | 27.8 | 0.00 | 0.00 | 0.00 | 71 | 1012.3 |
| 20260504191602 | 55 | 229 | 20.0 | 35.6 | 0.00 | 0.00 | 0.00 | 73 | 1012.4 |
| 20260504190056 | 55 | 237 | 20.0 | 33.9 | 0.00 | 0.00 | 0.00 | 73 | 1012.4 |
| 20260504184555 | 55 | 234 | 15.6 | 32.2 | 0.00 | 0.00 | 0.00 | 73 | 1012.6 |
| 20260504183054 | 56 | 245 | 16.5 | 29.5 | 0.00 | 0.00 | 0.00 | 72 | 1012.5 |
| 20260504181554 | 56 | 267 | 18.2 | 30.4 | 0.00 | 0.00 | 0.00 | 70 | 1012.3 |
| 20260504180052 | 56 | 241 | 16.5 | 31.3 | 0.00 | 0.00 | 0.00 | 71 | 1012.4 |
| 20260504174552 | 56 | 247 | 15.6 | 31.3 | 0.00 | 0.00 | 0.00 | 73 | 1012.4 |
| 20260504173050 | 56 | 262 | 20.0 | 26.9 | 0.00 | 0.00 | 0.00 | 71 | 1012.5 |
| 20260504171554 | 56 | 247 | 19.1 | 29.5 | 0.00 | 0.00 | 0.00 | 72 | 1012.6 |